Montpelier, VT

10:04 PM EST on January 21, 2017 (GMT -0500)
Montpelier

Weather History for KMPV - January, 2013

Change the Weather History Date:

Friday, January 11, 2013

  Actual Average Record
Temperature  
Mean Temperature 24 °F 16 °F  
Max Temperature 34 °F 26 °F 52 °F (1980)
Min Temperature 14 °F 7 °F -21 °F (2004)
Degree Days  
Heating Degree Days 41 49  
Month to date heating degree days 528 527  
Since 1 July heating degree days 3491 3675  
Cooling Degree Days 0 0  
Month to date cooling degree days 0  
Year to date cooling degree days 0  
Moisture  
Dew Point 22 °F    
Average Humidity 78    
Maximum Humidity 100    
Minimum Humidity 56    
Precipitation  
Precipitation 0.04 in 0.07 in 0.92 in (1983)
Month to date precipitation 0.14 0.80  
Year to date precipitation 0.14 0.80  
Sea Level Pressure  
Sea Level Pressure 30.38 in    
Wind  
Wind Speed 5 mph (South)    
Max Wind Speed 18 mph    
Max Gust Speed 24 mph    
Visibility 9 miles    
Events Rain    
T = Trace of Precipitation, MM = Missing Value Source: NWS Daily Summary

Daily Weather History Graph

Daily Weather History Graph

Search for Another Location

Airport or City:

Trip Planner

Search our weather history database for the weather conditions in past years. The results will help you decide how hot, cold, wet, or windy it might be!

Date:

Astronomy

Jan. 11, 2013 Rise Set
Actual Time 7:24 AM EST 4:32 PM EST
Civil Twilight 6:51 AM EST 5:05 PM EST
Nautical Twilight 6:15 AM EST 5:41 PM EST
Astronomical Twilight 5:40 AM EST 6:16 PM EST
Moon 6:53 AM EST (1/11) 4:49 PM EST (1/11)
Length of Visible Light 10h 13m
Length of Day
9h 08m
Waning Crescent, 0% of the Moon is Illuminated
Jan 11
Waning Crescent
Jan 11
New
Jan 18
First Quarter
Jan 26
Full
Feb 3
Last Quarter

Hourly Weather History & Observations

Time (EST) Temp. Windchill Dew Point Humidity Pressure Visibility Wind Dir Wind Speed Gust Speed Precip Events Conditions
12:41 AM 23.0 °F 18.4 °F 19.4 °F 86% 30.54 in 10.0 mi South 3.5 mph - N/A   Mostly Cloudy
12:51 AM 21.0 °F 16.2 °F 18.0 °F 88% 30.60 in 10.0 mi South 3.5 mph - N/A   Mostly Cloudy
1:23 AM 21.2 °F - 17.6 °F 86% 30.53 in 10.0 mi Calm Calm - N/A   Scattered Clouds
1:51 AM 19.9 °F - 19.0 °F 96% 30.57 in 10.0 mi Calm Calm - N/A   Clear
2:51 AM 19.0 °F - 17.1 °F 92% 30.54 in 10.0 mi Calm Calm - N/A   Clear
3:51 AM 17.1 °F - 16.0 °F 96% 30.53 in 10.0 mi Calm Calm - N/A   Clear
4:51 AM 18.0 °F - 17.1 °F 96% 30.52 in 10.0 mi Calm Calm - N/A   Clear
5:51 AM 16.0 °F - 15.1 °F 96% 30.53 in 10.0 mi Calm Calm - N/A   Clear
6:51 AM 15.1 °F - 12.9 °F 91% 30.53 in 9.0 mi Calm Calm - N/A   Clear
7:51 AM 17.1 °F - 15.1 °F 92% 30.53 in 7.0 mi Calm Calm - N/A   Clear
8:51 AM 19.0 °F - 18.0 °F 96% 30.50 in 8.0 mi Calm Calm - N/A   Clear
9:51 AM 21.0 °F - 19.9 °F 96% 30.48 in 9.0 mi Calm Calm - N/A   Clear
10:51 AM 24.1 °F - 21.0 °F 88% 30.44 in 10.0 mi Calm Calm - N/A   Clear
11:51 AM 32.0 °F 23.6 °F 21.0 °F 64% 30.40 in 10.0 mi South 10.4 mph 17.3 mph N/A   Clear
12:51 PM 33.1 °F 30.0 °F 21.0 °F 61% 30.35 in 10.0 mi SSE 3.5 mph - N/A   Overcast
2:51 PM 34.0 °F 29.8 °F 19.9 °F 56% 30.30 in 10.0 mi SSE 4.6 mph - 0.00 in   Overcast
3:51 PM 34.0 °F 26.0 °F 21.0 °F 59% 30.28 in 10.0 mi South 10.4 mph - N/A   Overcast
4:51 PM 33.1 °F 23.0 °F 21.9 °F 64% 30.26 in 10.0 mi South 15.0 mph 21.9 mph 0.00 in Rain Light Rain
5:51 PM 34.0 °F 26.0 °F 23.0 °F 64% 30.24 in 10.0 mi South 10.4 mph 20.7 mph 0.00 in   Overcast
6:51 PM 33.1 °F 27.7 °F 28.0 °F 82% 30.24 in 7.0 mi Variable 5.8 mph - 0.00 in Rain Light Rain
7:33 PM 33.8 °F 26.4 °F 30.2 °F 87% 30.17 in 9.0 mi South 9.2 mph - 0.02 in Rain Light Rain
7:51 PM 33.1 °F 25.5 °F 30.9 °F 92% 30.22 in 7.0 mi South 9.2 mph - 0.03 in Rain Light Rain
8:07 PM 33.8 °F 27.0 °F 30.2 °F 87% 30.16 in 8.0 mi South 8.1 mph - 0.00 in Rain Light Rain
8:51 PM 33.1 °F 23.9 °F 30.9 °F 92% 30.21 in 5.0 mi South 12.7 mph - 0.01 in Rain Light Rain
9:51 PM 33.1 °F 26.1 °F 32.0 °F 96% 30.21 in 5.0 mi South 8.1 mph - 0.00 in   Overcast
10:51 PM 33.1 °F 26.9 °F 32.0 °F 96% 30.20 in 6.0 mi South 6.9 mph - 0.00 in   Overcast
11:51 PM 34.0 °F 27.2 °F 32.0 °F 92% 30.17 in 10.0 mi South 8.1 mph - 0.00 in   Overcast